Погода в Красноярском

Россия / Воронежская область     50°14′06″N   40°24′13″E
темп.,
°C
ветер,
м/с
пор.,
м/с
влажн.,
%
обл.,
%
осадки,
мм/ч
давл.,
гПа
погр.,
м
25 февраля, чт
чт2500:00−13ююз468699 0.0 1038337
03:00−12ююз5990100 0.2 1036374
06:00−12ююз5992100 0.2 1033412
09:00−10ююз61092100 0.3 1032426
12:00−7юз71190100 0.1 1029477
15:00−5юз81391100 0.3 1026457
18:00−3зюз81594100 0.6 1022451
21:00−1зюз71396100 1.4 1021427
26 февраля, пт
пт2600:00+1з61298100 0.7 1020309
03:00+2з51299100 1.7 1019297
06:00+2з51099100 0.0 1019214
09:00+2з51099100 0.0 1018261
12:00+2з511100100 0.0 1018325
15:00+3з61198100 0.0 1016354
18:00+2з61398100 0.0 1014425
21:00+2з61398100 0.2 1014358
27 февраля, сб
сб2700:00+2з61396100 0.1 1012395
03:00+2з61295100 0.1 1012417
06:00+1з51195100 0.0 1010419
09:00+1з61196100 0.0 1009451
12:00+2з61198100 0.1 1009534
15:00+3зсз6108398 0.1 1008939
18:00+1зсз51092100 0.1 1008537
21:00+1зсз51095100 0.1 1008528
28 февраля, вс
вс2800:00+1зсз51098100 0.1 1009507
03:000ссз5993100 0.3 1011515
06:00−4ссз688368 0.1 1012627
09:00−5ссз577583 0.1 1015692
12:00−4ссз587099 0.0 1016683
15:00−3ссз576887 0.0 1017760
18:00−4ссз577383 0.0 1019730
21:00−6с577985 0.0 1021645
1 марта, пн
пн100:00−6с4677100 0.0 1023647
03:00−7с4577100 0.0 1025637
06:00−9ссз478491 0.0 1025558
09:00−8ссз478087 0.0 1027532
12:00−6ссз467193 0.0 1028618
15:00−4ссз566873 0.0 1029658
18:00−5ссз377768 0.0 1029549
21:00−6ссз278734 0.0 1031292